Weather History for KCPK - March, 2013

Change the Weather History Date:

Sunday, March 10, 2013

  Actual Average (KORF) Record (KORF)
Temperature  
Mean Temperature 43 °F 48 °F  
Max Temperature 60 °F 56 °F 80 °F (1964)
Min Temperature 26 °F 39 °F 18 °F (1932)
Degree Days  
Heating Degree Days 22 18  
Month to date heating degree days 188  
Since 1 July heating degree days 2757  
Cooling Degree Days 0 0  
Month to date cooling degree days 0  
Year to date cooling degree days 1  
Moisture  
Dew Point 33 °F    
Average Humidity 72    
Maximum Humidity 100    
Minimum Humidity 21    
Precipitation  
Precipitation 0.00 in 0.12 in 2.62 in (1994)
Month to date precipitation 1.18  
Year to date precipitation 7.70  
Snow  
Snow 0.00 in 0.00 in 6.00 in (1934)
Month to date snowfall 0.1  
Since 1 July snowfall 5.7  
Snow Depth -    
Sea Level Pressure  
Sea Level Pressure 30.31 in    
Wind  
Wind Speed 2 mph (East)    
Max Wind Speed 9 mph    
Max Gust Speed -    
Visibility 9 miles    
Events Fog    
T = Trace of Precipitation, MM = Missing Value Source: NWS Daily Summary

Daily Weather History Graph

Daily Weather History Graph

Search for Another Location

Airport or City:

Trip Planner

Search our weather history database for the weather conditions in past years. The results will help you decide how hot, cold, wet, or windy it might be!

Date:

Astronomy

Mar. 10, 2013 Rise Set
Actual Time 7:23 AM EDT 7:08 PM EDT
Civil Twilight 6:57 AM EDT 7:34 PM EDT
Nautical Twilight 6:27 AM EDT 8:04 PM EDT
Astronomical Twilight 5:57 AM EDT 8:34 PM EDT
Moon 6:20 AM EDT (3/10) 6:14 PM EDT (3/10)
Length of Visible Light 12h 36m
Length of Day
11h 45m
Waning Crescent, 2% of the Moon is Illuminated
Mar 10
Waning Crescent
Mar 11
New
Mar 19
First Quarter
Mar 27
Full
Apr 3
Last Quarter

Hourly Weather History & Observations

Time (EDT) Temp. Windchill Dew Point Humidity Pressure Visibility Wind Dir Wind Speed Gust Speed Precip Events Conditions
12:15 AM 33.8 °F - 30.2 °F 87% 30.31 in 10.0 mi Calm Calm - N/A   Clear
12:35 AM 32.0 °F - 30.2 °F 93% 30.32 in 10.0 mi Calm Calm - N/A   Clear
12:55 AM 32.0 °F - 30.2 °F 93% 30.32 in 10.0 mi Calm Calm - N/A   Clear
1:15 AM 32.0 °F - 28.4 °F 87% 30.32 in 10.0 mi Calm Calm - N/A   Clear
1:35 AM 30.2 °F - 28.4 °F 93% 30.32 in 10.0 mi Calm Calm - N/A   Clear
1:55 AM 32.0 °F - 28.4 °F 87% 30.32 in 10.0 mi Calm Calm - N/A   Clear
3:15 AM 30.2 °F - 28.4 °F 93% 30.31 in 10.0 mi Calm Calm - N/A   Clear
3:35 AM 30.2 °F - 28.4 °F 93% 30.30 in 10.0 mi Calm Calm - N/A   Clear
3:55 AM 30.2 °F - 28.4 °F 93% 30.30 in 10.0 mi Calm Calm - N/A   Clear
4:15 AM 28.4 °F - 28.4 °F 100% 30.29 in 10.0 mi Calm Calm - N/A   Clear
4:35 AM 30.2 °F - 28.4 °F 93% 30.29 in 10.0 mi Calm Calm - N/A   Clear
4:55 AM 30.2 °F - 28.4 °F 93% 30.29 in 10.0 mi Calm Calm - N/A   Clear
5:15 AM 28.4 °F - 26.6 °F 93% 30.30 in 10.0 mi Calm Calm - N/A   Clear
5:35 AM 28.4 °F - 26.6 °F 93% 30.30 in 10.0 mi Calm Calm - N/A   Clear
5:55 AM 28.4 °F - 26.6 °F 93% 30.31 in 10.0 mi Calm Calm - N/A   Clear
6:15 AM 28.4 °F - 28.4 °F 100% 30.31 in 10.0 mi Calm Calm - N/A   Clear
6:35 AM 28.4 °F - 26.6 °F 93% 30.31 in 10.0 mi Calm Calm - N/A   Clear
6:55 AM 28.4 °F - 26.6 °F 93% 30.31 in 10.0 mi Calm Calm - N/A   Clear
7:15 AM 26.6 °F - 26.6 °F 100% 30.32 in 10.0 mi Calm Calm - N/A   Clear
7:35 AM 26.6 °F - 26.6 °F 100% 30.32 in 10.0 mi Calm Calm - N/A   Clear
8:35 AM 33.8 °F - 30.2 °F 87% 30.32 in 10.0 mi Calm Calm - N/A   Clear
8:55 AM 35.6 °F - 32.0 °F 87% 30.33 in 10.0 mi Calm Calm - N/A   Clear
9:15 AM 39.2 °F - 33.8 °F 81% 30.32 in 10.0 mi Calm Calm - N/A   Clear
9:35 AM 44.6 °F - 32.0 °F 61% 30.33 in 10.0 mi Calm Calm - N/A   Clear
9:55 AM 48.2 °F - 30.2 °F 50% 30.33 in 10.0 mi NE 6.9 mph - N/A   Clear
10:15 AM 50.0 °F - 26.6 °F 40% 30.34 in 10.0 mi NE 5.8 mph - N/A   Clear
10:35 AM 53.6 °F - 24.8 °F 33% 30.34 in 10.0 mi ENE 8.1 mph - N/A   Clear
10:55 AM 53.6 °F - 23.0 °F 30% 30.34 in 10.0 mi East 8.1 mph - N/A   Clear
11:15 AM 53.6 °F - 23.0 °F 30% 30.34 in 10.0 mi ENE 6.9 mph - N/A   Clear
11:35 AM 55.4 °F - 23.0 °F 29% 30.34 in 10.0 mi NE 4.6 mph - N/A   Clear
11:55 AM 57.2 °F - 19.4 °F 23% 30.33 in 10.0 mi East 6.9 mph - N/A   Clear
12:15 PM 57.2 °F - 17.6 °F 21% 30.33 in 10.0 mi NE 6.9 mph - N/A   Clear
12:35 PM 57.2 °F - 21.2 °F 25% 30.33 in 10.0 mi NE 6.9 mph - N/A   Clear
12:55 PM 59.0 °F - 28.4 °F 31% 30.33 in 10.0 mi Calm Calm - N/A   Clear
1:15 PM 57.2 °F - 30.2 °F 36% 30.33 in 10.0 mi SE 4.6 mph - N/A   Clear
1:35 PM 59.0 °F - 32.0 °F 36% 30.31 in 10.0 mi ESE 8.1 mph - N/A   Clear
1:55 PM 59.0 °F - 30.2 °F 34% 30.31 in 10.0 mi ESE 5.8 mph - N/A   Clear
2:15 PM 59.0 °F - 30.2 °F 34% 30.30 in 10.0 mi ENE 6.9 mph - N/A   Clear
2:35 PM 60.8 °F - 30.2 °F 31% 30.30 in 10.0 mi SSE 3.5 mph - N/A   Clear
2:55 PM 60.8 °F - 33.8 °F 36% 30.29 in 10.0 mi SE 5.8 mph - N/A   Clear
3:15 PM 60.8 °F - 35.6 °F 39% 30.28 in 10.0 mi ESE 5.8 mph - N/A   Clear
3:35 PM 60.8 °F - 30.2 °F 31% 30.28 in 10.0 mi ESE 4.6 mph - N/A   Clear
3:55 PM 60.8 °F - 33.8 °F 36% 30.28 in 10.0 mi ESE 8.1 mph - N/A   Clear
4:15 PM 59.0 °F - 35.6 °F 42% 30.28 in 10.0 mi ESE 8.1 mph - N/A   Clear
4:35 PM 59.0 °F - 37.4 °F 45% 30.28 in 10.0 mi East 8.1 mph - N/A   Clear
4:55 PM 57.2 °F - 39.2 °F 51% 30.29 in 10.0 mi ESE 8.1 mph - N/A   Clear
5:15 PM 57.2 °F - 41.0 °F 55% 30.29 in 10.0 mi ESE 8.1 mph - N/A   Clear
5:35 PM 55.4 °F - 41.0 °F 58% 30.29 in 10.0 mi ESE 9.2 mph - N/A   Clear
5:55 PM 55.4 °F - 42.8 °F 63% 30.29 in 10.0 mi ESE 8.1 mph - N/A   Clear
6:15 PM 53.6 °F - 42.8 °F 67% 30.29 in 10.0 mi East 9.2 mph - N/A   Clear
6:35 PM 53.6 °F - 42.8 °F 67% 30.30 in 10.0 mi East 5.8 mph - N/A   Clear
6:55 PM 51.8 °F - 42.8 °F 71% 30.31 in 10.0 mi East 5.8 mph - N/A   Clear
7:15 PM 50.0 °F - 42.8 °F 76% 30.31 in 10.0 mi Calm Calm - N/A   Clear
7:35 PM 48.2 °F - 42.8 °F 82% 30.30 in 10.0 mi ESE 5.8 mph - N/A   Clear
7:55 PM 46.4 °F 43.5 °F 42.8 °F 87% 30.30 in 10.0 mi East 5.8 mph - N/A   Clear
8:15 PM 46.4 °F 43.5 °F 42.8 °F 87% 30.30 in 10.0 mi East 5.8 mph - N/A   Clear
8:35 PM 44.6 °F 41.4 °F 42.8 °F 93% 30.30 in 10.0 mi East 5.8 mph - N/A   Clear
8:55 PM 44.6 °F 42.2 °F 42.8 °F 93% 30.30 in 7.0 mi ESE 4.6 mph - N/A   Clear
9:15 PM 44.6 °F - 42.8 °F 93% 30.30 in 7.0 mi Calm Calm - N/A   Clear
9:35 PM 42.8 °F - 42.8 °F 100% 30.31 in 7.0 mi Calm Calm - N/A   Scattered Clouds
10:15 PM 42.8 °F - 42.8 °F 100% 30.32 in 5.0 mi Calm Calm - N/A   Mostly Cloudy
10:35 PM 42.8 °F 41.1 °F 42.8 °F 100% 30.32 in 1.8 mi East 3.5 mph - N/A   Overcast
10:55 PM 42.8 °F 39.3 °F 42.8 °F 100% 30.29 in 0.5 mi East 5.8 mph - N/A Fog Fog
11:15 PM 42.8 °F - 42.8 °F 100% 30.30 in 1.0 mi Calm Calm - N/A   Overcast
11:35 PM 42.8 °F - 42.8 °F 100% 30.31 in 0.5 mi Calm Calm - N/A Fog Fog
11:55 PM 42.8 °F - 42.8 °F 100% 30.31 in 0.2 mi Calm Calm - N/A Fog Fog
12:15 AM 41.0 °F - 41.0 °F 100% 30.30 in 0.2 mi Calm Calm - N/A Fog Fog
12:35 AM 41.0 °F - 41.0 °F 100% 30.29 in 0.2 mi Calm Calm - N/A Fog Fog
12:55 AM 41.0 °F - 41.0 °F 100% 30.28 in 0.2 mi Calm Calm - N/A Fog Fog